Вернуться в каталог

ATLAS 5 CENTAUR DEB

LostHEO
NORAD 49371·DEBRIS·🇺🇸 United States

Запущен Oct 17, 2018 с Cape Canaveral Space Force Station

Loading…

Ближайшие Пролёты (ближайшие 24 часа)

TLE

УстаревшееSource: Space-Track

Эпоха: Feb 28, 2022, 18:46 UTC

1 49371U 18079FY  22059.78221333 -.00000116  00000-0  00000+0 0  9994
2 49371  10.8894 178.4645 4722951  47.5812 343.5971  1.84562044  3490

Отслеживайте ATLAS 5 CENTAUR DEB в реальном времени с AllMySat

Download on the App Store